Terug naar catalogus

BS-3N

ActiefCommunicatieGEO
NORAD 23176·PAYLOAD·🇯🇵 Japan

Gelanceerd Jul 8, 1994 vanaf Guiana Space Centre

Loading…

TLE

VersSource: Space-Track

Epoch: Sep 14, 2026, 05:45 UTC

1 23176U 94040B   26257.23989317 -.00000191  00000-0  00000-0 0  9992
2 23176  13.4774  19.2782 0002119  38.5993 317.8414  0.99151778103184

Volg BS-3N in realtime met AllMySat

Download on the App Store